{"data":{"norad_id":58980,"epoch":"2026-09-20T21:51:41.404896Z","epoch_age_seconds":120170,"freshness":"FRESH","line1":"1 58980U 24031R   26263.91089589  .00000930  00000+0  38652-4 0  9997","line2":"2 58980  53.1586 107.6975 0001172  83.0981 277.0155 15.34394180146438","mean_motion":15.3439418,"eccentricity":0.0001172,"inclination_deg":53.1586,"raan_deg":107.6975,"arg_perigee_deg":83.0981,"mean_anomaly_deg":277.0155,"bstar":3.8652e-5,"rev_number":14643,"period_min":93.848114048503,"perigee_km":461.91879002478,"apogee_km":463.52228703181,"semimajor_km":6840.8575385283,"source":"CELESTRAK","updated_at":"2026-09-21T09:00:34.021757Z"}}